Aérodrome :
LOGIN :

S'inscrire | Disclaimer

   EN    FR    IT 

 










Légende :    VFR   VFR Marginal   IFR   IFR Intensif   IFR Très Intensif
Visi : 
Plafond : 
>= 8 km
>= 3000ft
5 à 8 km
1000 à 3000 ft
1500m à 5 km
500 à 1000 ft
800 à 1500m
200 à 500 ft
< 800m
< 200 ft
Symboles :   Orages  Brouillard  Fortes neiges  Fortes précipitations  Vent > 20 kt
SIGMETs :   Divers  Orages  Givrage  Turbulence  Onde Orograph.  Cendres Volcan.






- Altitude de l'aérodrome : 39 ft
- Code IATA : CTA


LICC - Catania Fontanarossa

DERNIER METAR :
  • 270650Z VRB02KT CAVOK 26/19 Q1017

METARs EXPIRÉS :
  • 270620Z VRB01KT CAVOK 25/20 Q1017
  • 270550Z 32004KT 280V360 CAVOK 24/20 Q1017
  • 270520Z 29005KT 250V330 CAVOK 23/20 Q1017
  • 270450Z 27006KT CAVOK 22/19 Q1018
  • 270420Z 25006KT CAVOK 22/19 Q1017

TAF TAF LICC
Valide du 27 à 06h jusqu'au 28 à 06h UTC


270500Z 2706/2806 24007KT 9999 FEW020
BECMG 2709/2711 08010KT
BECMG 2716/2718 24008KT



MET'MAP, la Météo Aéronautique d'un coup d'oeil ! - Copyright ORBIFLY Décembre 2007 - Disclaimer

ORBIFLY MET'MAP TEAM :

Programmation & Développement : Alexandra Zaïnal
Sur une idée originale de : Baudouin d'Aumeries
Assistance à la programmation : Marc-Olivier Méhu
Soutien technique & logistique : Manuel Goepfert

Contact : metmap@orbifly.com




SOURCES & CREDITS :

   NOAA